Location: Altenst�hlen
(53.5567°N, 8.9425°E)
Time: 10:13:55
(UTC+00:00)

Cosmos 292 Rocket - Pass Details

Date: 23 October 2019
Orbit: 673 x 694 km, 74.0° (Epoch: 14 November)

Event Time Altitude Azimuth Distance (km) Brightness Sun altitude
Rises 17:02:40 0° 201° (SSW) 3,014 7.5 -8.3°
Reaches altitude 10° 17:04:57 10° 201° (SSW) 2,104 6.7 -8.7°
Maximum altitude 17:09:41 82° 115° (ESE) 689 3.7 -9.4°
Drops below altitude 10° 17:14:28 10° 28° (NNE) 2,125 6.0 -10.1°
Sets 17:16:47 0° 27° (NNE) 3,047 6.8 -10.4°
